When you browse on this site, cookies collect data to enhance your experience and personalize the content and advertising you see.
Visit our Privacy Policy to learn more. By continuing to use the site, you agree to this use of cookies and data.
  • In Spain
  • List of Countries
  • For 7 days
  • Water Temperature
  • Satellite Maps
  • Weather Map
  • Weather Widgets
  • user-avatar
    Login

    Hourly Weather Valevo

    Today, 18 February, Monday

    Time Temperature Precipitation Wind Pressure Humidity
    00:00 +5°C° 0 mm 1 mps 744 mmHg 72%
    01:00 +5°C° 0 mm 1 mps 744 mmHg 72%
    02:00 +5°C° 0 mm 1 mps 744 mmHg 72%
    03:00 +4°C° 0 mm 1 mps 743 mmHg 72%
    04:00 +4°C° 0 mm 1 mps 743 mmHg 72%
    05:00 +4°C° 0 mm 1 mps 743 mmHg 72%
    06:00 +4°C° 0 mm 1 mps 743 mmHg 71%
    07:00 +4°C° 0 mm 1 mps 743 mmHg 71%
    08:00 +6°C° 0 mm 1 mps 743 mmHg 65%
    09:00 +8°C° 0 mm 1 mps 743 mmHg 60%
    10:00 +10°C° 0 mm 1 mps 743 mmHg 54%
    11:00 +11°C° 0 mm 1 mps 743 mmHg 51%
    12:00 +12°C° 0 mm 1 mps 742 mmHg 49%
    13:00 +14°C° 0 mm 1 mps 742 mmHg 46%
    14:00 +13°C° 0 mm 1 mps 742 mmHg 49%
    15:00 +13°C° 0 mm 1 mps 742 mmHg 51%
    16:00 +13°C° 0 mm 1 mps 741 mmHg 54%
    17:00 +11°C° 0 mm 1 mps 741 mmHg 58%
    18:00 +10°C° 0 mm 1 mps 741 mmHg 63%
    19:00 +8°C° 0 mm 1 mps 741 mmHg 67%
    20:00 +8°C° 0 mm 1 mps 741 mmHg 69%
    21:00 +7°C° 0 mm 1 mps 741 mmHg 70%
    22:00 +7°C° 0 mm 1 mps 741 mmHg 72%
    23:00 +6°C° 0 mm 1 mps 741 mmHg 72%

    Tomorrow, 19 February, Tuesday

    Time Temperature Precipitation Wind Pressure Humidity
    00:00 +5°C° 0 mm 2 mps 741 mmHg 73%
    01:00 +5°C° 0 mm 2 mps 741 mmHg 74%
    02:00 +4°C° 0 mm 2 mps 741 mmHg 74%
    03:00 +4°C° 0 mm 2 mps 741 mmHg 74%
    04:00 +4°C° 0 mm 2 mps 741 mmHg 75%
    05:00 +4°C° 0 mm 2 mps 740 mmHg 74%
    06:00 +4°C° 0 mm 2 mps 740 mmHg 74%
    07:00 +3°C° 0 mm 2 mps 740 mmHg 73%
    08:00 +6°C° 0 mm 2 mps 740 mmHg 66%
    09:00 +9°C° 0 mm 1 mps 740 mmHg 60%
    10:00 +11°C° 0 mm 1 mps 740 mmHg 53%
    11:00 +12°C° 0 mm 1 mps 740 mmHg 49%
    12:00 +14°C° 0 mm 1 mps 740 mmHg 45%
    13:00 +14°C° 0 mm 0 mps 740 mmHg 40%
    14:00 +14°C° 0 mm 0 mps 739 mmHg 43%
    15:00 +14°C° 0 mm 0 mps 739 mmHg 45%
    16:00 +13°C° 0 mm 0 mps 739 mmHg 47%
    17:00 +12°C° 0 mm 0 mps 739 mmHg 51%
    18:00 +10°C° 0 mm 0 mps 739 mmHg 55%
    19:00 +8°C° 0 mm 0 mps 740 mmHg 58%
    20:00 +9°C° 0 mm 1 mps 740 mmHg 61%
    21:00 +9°C° 0 mm 1 mps 740 mmHg 63%
    22:00 +8°C° 0 mm 1 mps 740 mmHg 65%
    23:00 +7°C° 0 mm 2 mps 740 mmHg 67%

    Day after tomorrow, 20 February, Wednesday

    Time Temperature Precipitation Wind Pressure Humidity
    00:00 +6°C° 0 mm 2 mps 740 mmHg 70%
    01:00 +6°C° 0 mm 2 mps 740 mmHg 72%
    02:00 +5°C° 0 mm 2 mps 741 mmHg 73%
    03:00 +5°C° 0 mm 2 mps 741 mmHg 75%
    04:00 +5°C° 0 mm 2 mps 741 mmHg 76%
    05:00 +5°C° 0 mm 2 mps 741 mmHg 77%
    06:00 +4°C° 0 mm 2 mps 741 mmHg 78%
    07:00 +5°C° 0 mm 1 mps 741 mmHg 79%
    08:00 +6°C° 0 mm 2 mps 742 mmHg 73%
    09:00 +8°C° 0 mm 2 mps 742 mmHg 67%
    10:00 +10°C° 0 mm 2 mps 742 mmHg 61%
    11:00 +10°C° 0 mm 3 mps 742 mmHg 60%
    12:00 +11°C° 0 mm 3 mps 742 mmHg 59%
    13:00 +12°C° 0 mm 3 mps 742 mmHg 57%
    14:00 +11°C° 0 mm 3 mps 742 mmHg 57%
    15:00 +11°C° 0 mm 3 mps 742 mmHg 57%
    16:00 +12°C° 0 mm 2 mps 742 mmHg 57%
    17:00 +10°C° 0 mm 2 mps 743 mmHg 62%
    18:00 +9°C° 0 mm 1 mps 743 mmHg 66%
    19:00 +8°C° 0 mm 1 mps 743 mmHg 71%
    20:00 +8°C° 0 mm 1 mps 744 mmHg 72%
    21:00 +7°C° 0 mm 1 mps 744 mmHg 73%
    22:00 +7°C° 0 mm 1 mps 744 mmHg 74%
    23:00 +7°C° 0 mm 1 mps 744 mmHg 75%

    21 February, Thursday

    Time Temperature Precipitation Wind Pressure Humidity
    00:00 +6°C° 0 mm 1 mps 744 mmHg 77%
    01:00 +6°C° 0 mm 1 mps 745 mmHg 78%
    02:00 +6°C° 0 mm 1 mps 744 mmHg 79%
    03:00 +5°C° 0 mm 1 mps 744 mmHg 80%
    04:00 +5°C° 0 mm 1 mps 744 mmHg 81%
    05:00 +5°C° 0 mm 1 mps 745 mmHg 82%
    06:00 +5°C° 0 mm 1 mps 745 mmHg 82%
    07:00 +5°C° 0 mm 1 mps 745 mmHg 83%
    08:00 +7°C° 0 mm 1 mps 745 mmHg 75%
    09:00 +9°C° 0 mm 1 mps 745 mmHg 67%
    10:00 +11°C° 0 mm 1 mps 746 mmHg 59%
    11:00 +11°C° 0 mm 1 mps 745 mmHg 55%
    12:00 +12°C° 0 mm 1 mps 745 mmHg 51%
    13:00 +13°C° 0 mm 1 mps 745 mmHg 47%
    14:00 +13°C° 0 mm 1 mps 744 mmHg 48%
    15:00 +13°C° 0 mm 1 mps 744 mmHg 49%
    16:00 +12°C° 0 mm 1 mps 744 mmHg 50%
    17:00 +11°C° 0 mm 1 mps 744 mmHg 55%
    18:00 +10°C° 0 mm 1 mps 744 mmHg 60%
    19:00 +8°C° 0 mm 0 mps 744 mmHg 65%
    20:00 +8°C° 0 mm 0 mps 744 mmHg 65%
    21:00 +8°C° 0 mm 1 mps 744 mmHg 66%
    22:00 +8°C° 0 mm 1 mps 745 mmHg 67%
    23:00 +8°C° 0 mm 1 mps 745 mmHg 68%

    22 February, Friday

    Time Temperature Precipitation Wind Pressure Humidity
    00:00 +8°C° 0 mm 1 mps 745 mmHg 70%
    01:00 +8°C° 0 mm 1 mps 745 mmHg 71%
    02:00 +8°C° 0.3 mm 1 mps 745 mmHg 76%
    03:00 +7°C° 0.3 mm 2 mps 744 mmHg 81%
    04:00 +6°C° 0.3 mm 2 mps 744 mmHg 85%
    05:00 +6°C° 0.3 mm 2 mps 744 mmHg 87%
    06:00 +6°C° 0.3 mm 2 mps 744 mmHg 88%
    07:00 +6°C° 0.3 mm 2 mps 744 mmHg 89%
    08:00 +5°C° 0.4 mm 3 mps 745 mmHg 89%
    09:00 +5°C° 0.4 mm 4 mps 745 mmHg 90%
    10:00 +6°C° 0.4 mm 4 mps 745 mmHg 90%
    11:00 +6°C° 0.2 mm 4 mps 745 mmHg 89%
    12:00 +6°C° 0.2 mm 4 mps 745 mmHg 88%
    13:00 +6°C° 0.2 mm 4 mps 745 mmHg 87%
    14:00 +6°C° 0.2 mm 4 mps 745 mmHg 87%
    15:00 +6°C° 0.2 mm 4 mps 745 mmHg 87%
    16:00 +6°C° 0.2 mm 4 mps 745 mmHg 87%
    17:00 +6°C° 0.2 mm 4 mps 746 mmHg 87%
    18:00 +6°C° 0.2 mm 4 mps 746 mmHg 87%
    19:00 +6°C° 0.2 mm 4 mps 747 mmHg 86%
    20:00 +5°C° 0 mm 4 mps 747 mmHg 84%
    21:00 +4°C° 0 mm 4 mps 748 mmHg 81%
    22:00 +3°C° 0 mm 4 mps 748 mmHg 78%
    23:00 +2°C° 0 mm 3 mps 749 mmHg 76%

    23 February, Saturday

    Time Temperature Precipitation Wind Pressure Humidity
    00:00 +1°C° 0 mm 3 mps 749 mmHg 74%
    01:00 0°C° 0 mm 3 mps 749 mmHg 72%
    02:00 0°C° 0 mm 3 mps 750 mmHg 71%
    03:00 -1°C° 0 mm 3 mps 750 mmHg 71%
    04:00 -1°C° 0 mm 3 mps 751 mmHg 71%
    05:00 -2°C° 0 mm 3 mps 751 mmHg 71%
    06:00 -2°C° 0 mm 3 mps 752 mmHg 71%
    07:00 -2°C° 0 mm 3 mps 752 mmHg 71%
    08:00 -1°C° 0 mm 3 mps 753 mmHg 67%
    09:00 0°C° 0 mm 3 mps 753 mmHg 63%
    10:00 +1°C° 0 mm 3 mps 754 mmHg 58%
    11:00 +2°C° 0 mm 3 mps 753 mmHg 56%
    12:00 +3°C° 0 mm 3 mps 753 mmHg 53%
    13:00 +4°C° 0 mm 3 mps 753 mmHg 50%
    14:00 +5°C° 0 mm 2 mps 753 mmHg 51%
    15:00 +5°C° 0 mm 2 mps 753 mmHg 51%
    16:00 +5°C° 0 mm 2 mps 753 mmHg 52%
    17:00 +4°C° 0 mm 2 mps 753 mmHg 55%
    18:00 +3°C° 0 mm 2 mps 753 mmHg 59%
    19:00 +1°C° 0 mm 2 mps 753 mmHg 62%
    20:00 +1°C° 0 mm 2 mps 753 mmHg 62%
    21:00 +1°C° 0 mm 2 mps 753 mmHg 62%
    22:00 +1°C° 0 mm 2 mps 753 mmHg 61%
    23:00 +1°C° 0 mm 2 mps 753 mmHg 61%
    Show more